DMSP 5D-2 F13 DEB, 40436

Orbit data source: Space-Track

DMSP 5D-2 F13 DEB, 40436 is space debris in SSO originally from a launch on Fri, 24 Mar 1995 UTC launched from the Air Force Western Test Range (AFWTR). Debris objects in space refer to the collection of defunct objects orbiting the Earth. Examples of debris include non-operational satellites, rocket bodies, and fragments generated from explosions, collisions, or faulty payload assembly.

Loading next visibility...
Identifier
40436, 1995-015AN
Orbit
SSO
Country
Flag of USUS
Related business
Manufacturer
Unknown
Mission
Spacecraft
Bus & Motor
Unknown
Mass
Unknown
Launch date (UTC)
1995-03-24 (30 years ago)
Launch vehicle
Unknown
Launch site
Air Force Western Test Range (AFWTR)
Object type
Payload
Rocket body
Debris
Shape & HBR
Unknown
Radar Cross Section
Small (<0.1 m²)

Expand to show TLE details & history
Last TLE update: 4 days ago

TLE from 4 days ago
0 DMSP 5D-2 F13 DEB
1 40436U 95015AN  25239.50822991  .00000688  00000-0  67166-3 0  9995
2 40436  98.8795 335.1093 0230242 184.1906 175.7320 13.71261736524026
Epoch: 2025-08-27T12:11Z
TLE epoch observation values (Epoch: 2025-08-27T12:11:51.064Z)
Latitude
0.00007°
Longitude
176.16195°
Altitude
1,167.232 km
Speed
7.186 km/s
True Right ascension
22h 20m 26s
True Declination
0° 00' 00"
Sunlit
Object was in full shadow at epoch
Visualization orbit readout
Latitude
Unknown
Longitude
Unknown
Altitude
Unknown
Speed
Unknown
Apparent Right ascension
Unknown
Apparent Declination
Unknown
Sunlit
N/A
Visualization observer readout
Local Sidereal Time
16:43:34
Azimuth
Unknown
Elevation
Unknown
Doppler factor
Unknown
Orbital elements
Apogee altitude
1,161.973 km
Perigee altitude
822.577 km
Semi-major axis
7,370.412 km
Eccentricity
0.02302
Inclination
98.8795°
RAAN
335.1093°
Arg. of periapsis
184.1906°
True anomaly
175.92287°
Mean anomaly
175.732°
Eccentric anomaly
175.82797°
Mean motion
3.43009 °/min
Orbital period
104.95 mins
BSTAR
0.00067166
Loading maneuver chart data...
Computing Atmospheric mass density...

Documentation

Showing up to 5 results
|